User: anonymous   Login
Location: Unspecified
(0.0000°N, 0.0000°E)
Time: 19:45:42
(UTC+00:00)
Language:

PRATHAM - Orbit

View from above orbital plane
View from above orbital plane
View from above satellite
View from above satellite

Ground track
Ground track

The orbit data is extracted from the following two-line orbital elements,

1 41783U 16059A   19340.71898308 +.00000033 +00000-0 +15588-4 0  9992
2 41783 098.0464 036.3251 0033100 204.0423 155.9236 14.63024675170555
Epoch (UTC): 06 December 2019 17:15:20
Eccentricity: 0.0033100
inclination: 98.0464°
perigee height: 660 km
apogee height: 707 km
right ascension of ascending node: 36.3251°
argument of perigee: 204.0423°
revolutions per day: 14.63024675
mean anomaly at epoch: 155.9236°
orbit number at epoch: 17055

The dashed part of the orbit path shows where the satellite is in the earth's shadow,  

DLR